Location: Clairemont
(32.7973°N, 117.1925°W)
Time: 19:02:24
(UTC+00:00)

Daily predictions for brighter satellites

Satellite Brightness Start Highest point End
(mag) Time Altitude Azimuth Time Altitude Azimuth Time Altitude Azimuth
H-2A R/B 4.4 12:03:25 10° SSE 12:04:15 16° SSE 12:04:15 16° SSE
ATLAS 2AS CENTAUR R/B 4.4 12:05:20 10° S 12:12:21 37° ESE 12:19:28 10° NE
Delta 2 Rocket 4.2 12:16:38 51° NE 12:16:38 51° NE 12:20:12 10° E
USA 234 3.4 12:13:44 10° NE 12:20:15 70° SE 12:25:57 14° SSW
SL-16 R/B 2.1 12:28:21 44° NNW 12:30:17 88° WSW 12:35:56 10° SSE
SL-8 R/B 4.3 12:32:33 43° N 12:33:33 50° NE 12:38:14 10° ESE
ADEOS 3.4 12:28:37 10° N 12:33:51 79° WNW 12:39:03 10° SSW
Cosmos 1745 Rocket 3.8 12:27:57 10° SSW 12:34:08 71° W 12:40:27 10° N
ASTRO E2 2.9 12:36:30 60° S 12:36:31 60° S 12:40:26 10° E
Cosmos 2151 2.8 12:36:46 10° S 12:40:57 87° E 12:45:09 10° N
ERS-2 2.2 12:40:38 10° SSE 12:44:15 72° ENE 12:45:29 39° N
SL-4 R/B 3.9 12:49:34 17° N 12:49:34 17° N 12:50:56 10° NNE
BREEZE-M DEB (TANK) 2.6 12:47:37 37° SSW 12:48:30 57° SE 12:53:31 10° NE
OAO 3 Rocket 3.1 12:48:32 49° WNW 12:49:40 70° N 12:54:23 10° E
Cosmos 1689 Rocket 4.5 12:48:47 10° SE 12:51:06 22° ENE 12:53:25 10° NNE
Cosmos 1777 Rocket 3.9 12:46:31 10° SSW 12:51:36 57° WNW 12:56:44 10° N
Cosmos 1766 Rocket 4.3 12:47:35 10° S 12:51:56 55° E 12:56:18 10° NNE
SJ 16-02 2.4 12:51:16 10° S 12:55:29 48° ESE 12:59:45 10° NNE
COSMO-SKYMED 1 3.3 12:51:54 10° SSE 12:56:07 53° ENE 13:00:21 10° N
Lacrosse 5 2.7 12:51:25 10° SSW 12:56:18 51° SE 13:01:13 10° NE
CZ-4B R/B 1.1 12:54:00 10° S 12:57:12 70° WSW 12:57:22 67° WNW
BREEZE M DEB (TANK) 4.3 12:39:14 10° SW 12:57:29 68° SE 13:01:50 10° ENE
Meteor PRIRODA 4.1 12:53:50 10° NNE 12:57:32 64° E 13:01:14 10° S
METEOR-M 4.2 12:52:48 10° N 12:57:59 53° WNW 13:03:08 10° SSW
Cosmos 1709 Rocket 3.9 12:53:48 10° S 13:00:07 80° W 13:06:32 10° N
Cosmos 1606 2.6 12:57:13 11° N 13:00:50 84° E 13:04:37 10° S
BREEZE-M DEB (TANK) 4.0 13:02:40 20° N 13:02:40 20° N 13:04:31 10° NNE
Meteor 1-31 Rocket 3.1 13:00:03 10° N 13:03:40 40° WNW 13:07:14 10° SW
Cosmos 389 Rocket 2.3 13:02:33 32° NNW 13:03:58 67° W 13:07:24 10° S
Cosmos 2263 Rocket 2.2 12:59:00 10° SSW 13:04:32 59° WNW 13:10:09 10° NNE
CZ-4B R/B 3.0 13:08:18 10° N 13:12:47 69° WNW 13:17:10 10° SSW
PSLV R/B 4.3 13:11:37 10° SSE 13:15:45 67° ENE 13:19:52 10° N
Cosmos 1441 Rocket 3.6 13:13:37 10° SSW 13:17:13 39° W 13:20:47 10° N
GPS 2-04 Rocket1 2.9 13:14:43 17° WSW 13:17:31 61° SSE 13:21:10 10° E
ALOS 3.5 13:16:21 10° NNW 13:22:34 13° WSW 13:23:19 10° WSW
SKYMED 3 4.5 13:15:49 10° S 13:20:08 76° WSW 13:24:29 10° NNW
Cosmos 1603 4.1 13:19:03 10° NNW 13:24:38 66° ENE 13:30:13 10° SSE
OAO 2 Rocket 3.5 13:21:31 13° WSW 13:26:04 77° SSE 13:31:16 10° ENE
Atlas Centaur 2 3.2 13:21:27 10° SW 13:26:40 36° SSE 13:30:52 10° E
FALCON 9 DEB 4.2 13:24:17 10° SSW 13:27:18 42° SE 13:30:22 10° ENE
MOS 1 Rocket 4.3 13:25:20 10° SSE 13:29:40 47° ENE 13:34:16 10° N
Cosmos 1184 Rocket 2.8 13:28:08 10° SSW 13:31:20 53° W 13:34:33 10° N
FALCON 9 DEB 3.7 13:29:03 10° SSW 13:32:10 55° SE 13:35:19 10° NE
Cosmos 1943 3.5 13:31:26 10° NNW 13:37:09 74° ENE 13:42:49 10° SSE
ASTRO F (AKARI) 4.3 13:34:22 10° N 13:37:21 48° WNW 13:40:21 10° SSW
Cosmos 2184 Rocket 4.3 13:32:03 10° S 13:38:16 74° E 13:44:35 10° N
NOSS 3-4 (A) 3.8 13:38:15 10° WSW 13:43:40 38° NW 13:49:21 10° NNE
NOSS 3-4 (C) 3.8 13:38:20 10° WSW 13:43:47 39° NW 13:49:28 10° NNE
SKYMED 2 4.1 13:40:10 10° SSW 13:44:11 37° W 13:48:13 10° NNW
SWAS 4.4 13:41:21 10° NNW 13:45:36 68° WSW 13:49:49 10° SSE
Envisat 3.0 13:41:52 10° NNE 13:46:58 90° NNW 13:52:03 10° SSW
FALCON 9 DEB 3.0 13:45:40 10° SW 13:48:50 84° SE 13:52:03 10° NE
NOSS 3-2 (C) 4.3 13:41:20 10° NNW 13:49:21 90° SSW 13:58:07 10° SSE
Meteor 1-4 Rocket 2.3 13:46:29 10° N 13:49:56 81° W 13:53:22 10° S
BREEZE-M (TANK) 4.2 13:36:16 10° SW 13:51:10 70° SE 13:54:53 10° ENE
Cosmos 2084 4.0 13:48:23 10° NNW 13:52:51 63° ENE 13:57:18 10° SE
Cosmos 1862 4.1 13:48:55 10° S 13:52:52 57° E 13:56:51 10° NNE
USA 276 2.7 13:50:36 10° WNW 13:53:33 42° SW 13:56:33 10° SSE
Cosmos 1937 Rocket 4.1 13:48:47 10° S 13:53:50 64° ESE 13:58:56 10° NNE
Cosmos 1515 Rocket 3.9 13:50:39 10° N 13:55:06 73° E 13:59:33 10° SSE
H-2A R/B 2.2 13:52:04 10° N 13:55:54 72° WNW 13:59:41 10° SSW
Delta 2 Rocket 3.4 13:53:45 10° WNW 13:58:24 87° SSW 14:02:27 10° ESE
Okean O Rocket 2.4 13:54:34 10° NNE 13:58:57 60° E 14:03:20 10° S
H-2A R/B 3.5 13:56:38 10° N 14:00:07 31° WNW 14:03:34 10° SW
USA 234 4.0 13:57:17 10° NNE 14:02:51 31° NW 14:08:26 10° W
ATLAS 2AS CENTAUR R/B 3.4 13:55:43 10° SW 14:03:12 45° NW 14:10:44 10° NNE
